Regional Weather Roundup
Issued by NWS

Home | Current Version | Previous Version | Text Only | Print | Product List | Glossary Off
Versions: 1 2 3 4 5 6 7 8 9 10 11 12 13 14 15 16 17 18 19 20 21 22 23 24 25 26 27 28

000
ASUS45 KTFX 172210
RWRMT
MONTANA REGIONAL WEATHER ROUNDUP
NATIONAL WEATHER SERVICE GREAT FALLS MT
300 PM MST WED JAN 17 2018

NOTE: "FAIR" INDICATES FEW OR NO CLOUDS BELOW 12000 FEET WITH NO
SIGNIFICANT WEATHER AND/OR OBSTRUCTIONS TO VISIBILITY.

MTZ001>007-043-172300-
WEST OF THE DIVIDE

CITY           SKY/WX    TMP DP  RH WIND       PRES   REMARKS
KALISPELL      CLOUDY    29  28  96 S3        30.16F
MISSOULA       CLOUDY    29  25  85 CALM      30.20F
BUTTE          FAIR      28  19  69 SW3       30.19F
MULLAN PASS    CLOUDY    30  28  92 VRB5      30.09F
ANACONDA         N/A     37  19  48 SE22G28   30.14F WCI  27
DEER LODGE       N/A     37  23  56 S12       30.15F WCI  30
EUREKA           N/A     30  25  80 MISG      30.13F
HAMILTON         N/A     48  21  34 S15       30.17R
PLAINS           N/A     30  26  85 CALM      30.15F
RONAN          FOG       27  27 100 SW6       30.19F VSB 0   WCI  20
$$

MTZ008-052>055-172300-
SOUTHWEST MONTANA

CITY           SKY/WX    TMP DP  RH WIND       PRES   REMARKS
BOZEMAN        FAIR      26  19  74 SE5       30.21F
DILLON         FAIR      33  22  63 SE9       30.22F WCI  25
ENNIS          PTSUNNY   41  25  52 S20G28    30.27S
W YELLOWSTONE  FAIR      25  18  74 NE5       30.32S
THREE FORKS      N/A     33  23  67 MISG      30.18F
TWIN BRIDGES     N/A     39  20  47 SE1       30.18F
$$

MTZ009-010-012-014-046-048-049-054-172300-
EAST SLOPES AND CENTRAL MONTANA

CITY           SKY/WX    TMP DP  RH WIND       PRES   REMARKS
CUT BANK       FAIR      43  19  38 SW20      29.97F
GREAT FALLS    FAIR      40  24  53 SW21      30.02F
MALMSTROM AFB  PTSUNNY   40  26  56 S24       30.01F
HELENA         FAIR      27  19  72 CALM      30.17F
AUGUSTA        FAIR      40  24  53 S17G29    30.01S
BOWMANS CRNR   FAIR      35  23  61 S24       30.04S WCI  22
CHOTEAU          N/A     46  19  34 SW21      30.01F
CONRAD           N/A     35  28  76 S18       30.01F WCI  24
FAIRFIELD      FAIR      39  22  51 S17G26    30.01S WCI  30
POWER          FAIR      37  25  61 S16       30.01F WCI  27
RAYNESFORD     PTSUNNY   47  18  31 S3        30.03F
ULM            PTSUNNY   41  25  54 S16G23    30.04F
WHITE SULPHUR    N/A     32  21  64 S18       30.12F WCI  20
$$

MTZ011-013-016-021-045-047-050-051-172300-
NORTH CENTRAL MONTANA

CITY           SKY/WX    TMP DP  RH WIND       PRES   REMARKS
HAVRE          FAIR      34  25  69 W8        29.99F WCI  27
LEWISTOWN      FAIR      40  18  41 E5        30.06F
N BAR RANCH    FAIR      46  19  34 SE6       30.10F
CHINOOK          N/A     28  21  74 E5        30.01F
DENTON         FAIR      38  24  55 MISG      30.01F
GEYSER         PTSUNNY   40  26  56 SW5       30.04F
GRASS RANGE    FAIR      46  20  36 W3        30.03F
STANFORD       FAIR      45  18  34 SW13G22   30.05F
WINIFRED       FAIR      42  21  42 SW9       30.03F
$$

MTZ017>020-022>027-061-062-172300-
NORTHEAST MONTANA

CITY           SKY/WX    TMP DP  RH WIND       PRES   REMARKS
GLASGOW        FAIR      23  16  74 E6        30.04F WCI  16
GLENDIVE       FAIR      23  17  78 S16       30.10F WCI  10
JORDAN           N/A     35  24  64 VRB3      30.07F
MALTA          SUNNY     25  18  74 W6        30.03F WCI  18
SIDNEY         FAIR      28  20  71 S9        30.09F WCI  19
WOLF POINT     FAIR      25  15  66 SW7       30.07F WCI  17
PLENTYWOOD       N/A     34  21  60 W14       29.99F WCI  24
POPLAR           N/A     25  16  68 W6        30.07F WCI  18
SCOBEY           N/A     33  18  54 SW1       29.99F
$$

MTZ028>42-056>058-172300-
SOUTHCENTRAL AND SOUTHEAST MONTANA

CITY           SKY/WX    TMP DP  RH WIND       PRES   REMARKS
BAKER          FAIR      31  22  69 W14       30.14F WCI  21
BILLINGS       FAIR      40  21  46 SW18      30.14F
LIVINGSTON     FAIR      43  24  47 W16G28    30.14F
MILES CITY     FAIR      20  13  74 S10       30.15F WCI   9
BIG TIMBER     SUNNY     41  25  52 W18       30.17S
EKALAKA          N/A     36  19  50 SW8       30.10F WCI  30
FORSYTH          N/A     27  16  63 CALM      30.14F
HARLOWTON      FAIR      39  26  59 W14       30.12F WCI  31
LAUREL           N/A     39  21  48 SW22      30.14F WCI  29
ROUNDUP          N/A     44  21  40 S14       30.01F
$$

REGIONAL REPORTS...DAKOTAS

CITY           SKY/WX    TMP DP  RH WIND       PRES   REMARKS
WILLISTON      FAIR      34  22  61 W15       30.05F WCI  24
MINOT          FAIR      38  23  55 W21G30    29.95R WCI  28
DICKINSON      FAIR      35  23  61 W20       30.06F WCI  24
BEACH          FAIR      32  21  64 SW18      30.13F WCI  20
CROSBY         FAIR      36  23  60 W21       29.96F WCI  24
TIOGA          FAIR      32  21  64 W18       30.00F WCI  20
WATFORD CITY   FAIR      36  23  60 SW15G22   30.05S WCI  26
BISMARCK       FAIR      40  25  55 W13       30.08S
GRAND FORKS    FAIR      32  25  75 SW10      29.90S WCI  24
FARGO          FAIR      30  22  72 SW15      30.00S WCI  19
BUFFALO SD       N/A     35  23  61 W14       30.09S WCI  26
RAPID CITY     FAIR      46  28  49 SW6       30.21S
$$

REGIONAL REPORTS...WYOMING/IDAHO/WASHINGTON

CITY           SKY/WX    TMP DP  RH WIND       PRES   REMARKS
GILLETTE       FAIR      40  24  53 S6        30.21F
SHERIDAN       FAIR      40  23  50 SW5       30.17F
BUFFALO WY     FAIR      39  19  44 S14       30.19F WCI  31
CODY           FAIR      27  17  66 CALM      30.22F
YELLOWSTONE LA   N/A     27  20  75 CALM      30.33S
IDAHO FALLS    FAIR      38  28  67 N3        30.36F
SALMON         FAIR      33  23  66 CALM      30.34F
BOISE          FAIR      49  33  54 SE10      30.27F
SPOKANE        CLOUDY    37  36  96 NE7       30.08F WCI  32
$$

REGIONAL REPORTS...ALBERTA

CITY           SKY/WX    TMP DP  RH WIND       PRES   REMARKS
CALGARY        PTSUNNY   36  19  51 S7        29.81F WCI  30
CARDSTON         N/A     48  18  29 MISG        N/A
EDMONTON       SUNNY     36  21  55 S3        29.80F
FORT MCMURRAY  CLEAR     39  32  75 W12G18    29.67R WCI  32
HIGH LEVEL     PTCLDY    28  23  80 S5        29.58S
LETHBRIDGE     CLOUDY    36  27  69 S6        29.92F WCI  31
LLOYDMINSTER   PTCLDY    37  25  60 W15       29.78F WCI  28
MEDICINE HAT   MOSUNNY   41  27  56 SW16      29.91F
MILK RIVER       N/A     34  23  64 S9          N/A  WCI  26
ONEFOUR          N/A     25  18  74 E12         N/A  WCI  14
PEACE RIVER    MOCLDY    27  23  86 SW6       29.69F WCI  20
PINCHER CREEK  PTSUNNY   41  25  52 W22G30    29.94F
$$

REGIONAL REPORTS...SASKATCHEWAN

CITY           SKY/WX    TMP DP  RH WIND       PRES   REMARKS
CORONACH         N/A     30  19  64 W20         N/A  WCI  18
CYPRESS HILLS    N/A     39  14  35 SW15G23     N/A  WCI  31
ESTEVAN        PTCLDY    36  25  64 W15       29.92F WCI  26
MOOSE JAW        N/A     41  23  48 W21G28      N/A
PRINCE ALBERT  PTCLDY    28  23  80 W9        29.72S WCI  20
REGINA         PTCLDY    37  28  70 W16       29.86F WCI  28
ROCKGLEN         N/A     28  19  69 W14         N/A  WCI  17
SASKATOON      PTCLDY    43  28  56 W15G23    29.80R
SWIFT CURRENT  SUNNY     37  23  56 W15G21    29.91F WCI  28
VAL MARIE        N/A     30  21  69 W14         N/A  WCI  20
$$




USA.gov is the U.S. government's official web portal to all federal, state and local government web resources and services.